Weather History for Truth Or Consequences, NM

Change the Weather History Date:

Monday, April 15, 2013

  Actual Average Record
Temperature  
Mean Temperature 68 °F -  
Max Temperature 82 °F 74 °F 84 °F (2002)
Min Temperature 53 °F 44 °F 34 °F (2014)
Degree Days  
Heating Degree Days 0    
Month to date heating degree days 59  
Since 1 July heating degree days 2888  
Cooling Degree Days 3    
Month to date cooling degree days 13  
Year to date cooling degree days 15  
Growing Degree Days 18 (Base 50)    
Moisture  
Dew Point 19 °F    
Average Humidity 21    
Maximum Humidity 35    
Minimum Humidity 6    
Precipitation  
Precipitation 0.00 in - 0.00 in (2014)
Month to date precipitation T  
Year to date precipitation 0.14  
Sea Level Pressure  
Sea Level Pressure 29.55 in    
Wind  
Wind Speed 13 mph (SW)    
Max Wind Speed 31 mph    
Max Gust Speed 38 mph    
Visibility 10 miles    
Events      
T = Trace of Precipitation, MM = Missing Value Source: NWS Daily Summary

Daily Weather History Graph

Daily Weather History Graph

Search for Another Location

Airport:

Trip Planner

Search our weather history database for the weather conditions in past years. The results will help you decide how hot, cold, wet, or windy it might be!

Date:

Astronomy

Apr. 15, 2013 Rise Set
Actual Time 6:38 AM MDT 7:39 PM MDT
Civil Twilight 6:13 AM MDT 8:05 PM MDT
Nautical Twilight 5:42 AM MDT 8:35 PM MDT
Astronomical Twilight 5:11 AM MDT 9:06 PM MDT
Moon 10:15 AM MDT (4/15) No Moon Set
Length of Visible Light 13h 52m
Length of Day
13h 01m
Waxing Crescent, 25% of the Moon is Illuminated
Apr 15
Waxing Crescent
Apr 18
First Quarter
Apr 25
Full
May 2
Last Quarter
May 9
New

Hourly Weather History & Observations

Time (MDT) Temp. Dew Point Humidity Pressure Visibility Wind Dir Wind Speed Gust Speed Precip Events Conditions
12:53 AM 63.0 °F 21.0 °F 20% 29.53 in 10.0 mi SSW 5.8 mph - N/A   Clear
1:53 AM 61.0 °F 19.9 °F 21% 29.52 in 10.0 mi South 8.1 mph - N/A   Clear
2:53 AM 61.0 °F 19.9 °F 21% 29.52 in 10.0 mi SSW 8.1 mph - N/A   Clear
3:53 AM 60.1 °F 24.1 °F 25% 29.51 in 10.0 mi South 12.7 mph - N/A   Clear
4:53 AM 57.9 °F 26.1 °F 30% 29.52 in 10.0 mi SSW 8.1 mph - N/A   Clear
5:53 AM 59.0 °F 26.1 °F 28% 29.52 in 10.0 mi SSW 12.7 mph - N/A   Clear
6:53 AM 55.0 °F 28.0 °F 35% 29.57 in 10.0 mi SW 6.9 mph - N/A   Clear
7:53 AM 57.9 °F 27.0 °F 31% 29.62 in 10.0 mi NNE 3.5 mph - N/A   Clear
8:53 AM 62.1 °F 26.1 °F 25% 29.63 in 10.0 mi South 9.2 mph - N/A   Clear
9:53 AM 64.9 °F 25.0 °F 22% 29.62 in 10.0 mi South 10.4 mph - N/A   Clear
10:53 AM 69.1 °F 23.0 °F 18% 29.61 in 10.0 mi SW 11.5 mph 20.7 mph N/A   Clear
11:53 AM 73.0 °F 21.9 °F 15% 29.57 in 10.0 mi SSE 19.6 mph 28.8 mph N/A   Clear
12:53 PM 77.0 °F 19.0 °F 11% 29.54 in 10.0 mi SSW 16.1 mph 27.6 mph N/A   Clear
1:53 PM 79.0 °F 16.0 °F 9% 29.52 in 10.0 mi SW 11.5 mph 33.4 mph N/A   Clear
2:53 PM 81.0 °F 9.0 °F 6% 29.50 in 10.0 mi WSW 27.6 mph 38.0 mph N/A   Clear
3:53 PM 81.0 °F 12.9 °F 8% 29.49 in 10.0 mi WSW 19.6 mph 35.7 mph N/A   Clear
4:53 PM 80.1 °F 16.0 °F 9% 29.51 in 10.0 mi WSW 19.6 mph 26.5 mph N/A   Clear
5:53 PM 79.0 °F 15.1 °F 9% 29.51 in 10.0 mi WSW 21.9 mph 29.9 mph N/A   Clear
6:53 PM 77.0 °F 10.9 °F 8% 29.52 in 10.0 mi WSW 19.6 mph 32.2 mph N/A   Clear
7:53 PM 73.9 °F 8.1 °F 8% 29.55 in 10.0 mi WSW 18.4 mph 23.0 mph N/A   Clear
8:53 PM 71.1 °F 9.0 °F 9% 29.57 in 10.0 mi WSW 10.4 mph 21.9 mph N/A   Clear
9:53 PM 70.0 °F 12.0 °F 11% 29.59 in 10.0 mi SW 12.7 mph - N/A   Clear
10:53 PM 66.9 °F 10.9 °F 11% 29.60 in 10.0 mi WSW 10.4 mph - N/A   Clear
11:53 PM 64.9 °F 16.0 °F 15% 29.60 in 10.0 mi SW 6.9 mph - N/A   Clear